STARLINK-36423, 67448

Orbit data source: Space-Track

STARLINK-36423, 67448 is a payload satellite owned by SpaceX/Seattle (US) in LEO that was launched on Wed, 14 Jan 2026 UTC via an FALCON 9 launch vehicle from the Air Force Eastern Test Range (AFETR). Payload-class satellites include a variety of spacecraft equipped with specific instruments for various scientific and technological missions. These include communications satellites like Starlink; space stations such as the ISS; scientific satellites like the Hubble; Earth observation satellites from companies like Planet Labs, Umbra, and HawkEye 360; GPS; miniature CubeSats for education and research; and military/defense satellites.

Loading next visibility...
Identifier
67448, 2026-008D
Orbit
LEO
Country
Flag of USUS
Related business
Manufacturer
SpaceX/Seattle
Mission
Operational spacecraft
Bus & Motor
STARLINK V2MO, Unknown motor
Mass
575 kg wet, ~530 kg dry
Launch date (UTC)
2026-01-14 (2 months ago)
Launch vehicle
FALCON 9
Launch site
Air Force Eastern Test Range (AFETR)
Object type
Payload
Rocket body
Debris
Shape & HBR
Unknown shape, 17.7 m
Radar Cross Section
RCS unknown

Expand to show TLE details & history
Last TLE update: 11 hours ago

TLE from 11 hours ago
0 STARLINK-36423
1 67448U 26008D   26062.75002315  .00008707  00000-0  32567-3 0  9992
2 67448  42.9996 238.7157 0001941 263.1892 129.5466 15.27566785  5975
Epoch: 2026-03-03T18:00Z
TLE epoch observation values (Epoch: 2026-03-03T18:00:02.000Z)
Latitude
21.72384°
Longitude
-167.67232°
Altitude
483.435 km
Speed
7.627 km/s
True Right ascension
17h 35m 26s
True Declination
21° 36' 04"
Sunlit
Object was in daylight at epoch
Visualization orbit readout
Latitude
Unknown
Longitude
Unknown
Altitude
Unknown
Speed
Unknown
Apparent Right ascension
Unknown
Apparent Declination
Unknown
Sunlit
N/A
Visualization observer readout
Local Sidereal Time
08:42:55
Azimuth
Unknown
Elevation
Unknown
Doppler factor
Unknown
Orbital elements
Apogee altitude
486.366 km
Perigee altitude
483.702 km
Semi-major axis
6,863.171 km
Eccentricity
0.00019
Inclination
42.9996°
RAAN
238.7157°
Arg. of periapsis
263.1892°
True anomaly
129.56375°
Mean anomaly
129.5466°
Eccentric anomaly
129.55517°
Mean motion
3.8173 °/min
Orbital period
94.31 mins
BSTAR
0.00032567
Loading maneuver chart data...
Computing Atmospheric mass density...
Loading historical data...
Loading historical data...
Loading historical data...
Loading historical data...
Loading historical data...
Loading historical data...
Loading historical data...

Documentation

Showing up to 5 results
|